Granite Falls, MN

9:50 AM CST on December 08, 2019 (GMT -0600)
Granite Falls

Weather History for KGDB - October, 2019

Change the Weather History Date:

Thursday, October 24, 2019

  Actual Average (KMVE) Record (KMVE)
Temperature  
Mean Temperature 37 °F -  
Max Temperature 46 °F 57 °F 81 °F (1989)
Min Temperature 28 °F 34 °F 19 °F (1960)
Degree Days  
Heating Degree Days 28    
Moisture  
Dew Point 28 °F    
Average Humidity 75    
Maximum Humidity 94    
Minimum Humidity 44    
Precipitation  
Precipitation 0.00 in - - ()
Sea Level Pressure  
Sea Level Pressure 30.32 in    
Wind  
Wind Speed 7 mph (WSW)    
Max Wind Speed 10 mph    
Max Gust Speed -    
Visibility 8 miles    
Events      
Averages and records for this station are not official NWS values.
T = Trace of Precipitation, MM = Missing Value Source: NWS Daily Summary

Daily Weather History Graph

Daily Weather History Graph

Search for Another Location

Airport or City:

Astronomy

Oct. 24, 2019 Rise Set
Actual Time 7:49 AM CDT 6:22 PM CDT
Civil Twilight 7:19 AM CDT 6:52 PM CDT
Nautical Twilight 6:45 AM CDT 7:26 PM CDT
Astronomical Twilight 6:11 AM CDT 8:00 PM CDT
Moon 3:05 AM CDT (10/24) 5:04 PM CDT (10/24)
Length of Visible Light 11h 33m
Length of Day
10h 33m
Waning Crescent, 16% of the Moon is Illuminated
Oct 24
Waning Crescent
Oct 27
New
Nov 4
First Quarter
Nov 12
Full
Nov 19
Last Quarter

Hourly Weather History & Observations

Time (CDT) Temp. Windchill Dew Point Humidity Pressure Visibility Wind Dir Wind Speed Gust Speed Precip Events Conditions
12:15 AM 37.9 °F 31.5 °F 33.1 °F 83% 30.23 in 7.0 mi WNW 9.2 mph - N/A   Overcast
12:16 AM 37.9 °F 31.5 °F 33.1 °F 83% 30.23 in 7.0 mi WNW 9.2 mph - N/A   Overcast
12:35 AM 38.1 °F 31.2 °F 32.5 °F 80% 30.23 in 10.0 mi WNW 10.4 mph - N/A   Overcast
12:39 AM 38.3 °F 31.9 °F 32.4 °F 79% 30.23 in 10.0 mi WNW 9.2 mph - N/A   Overcast
12:58 AM 37.9 °F 32.1 °F 32.5 °F 81% 30.23 in 7.0 mi WNW 8.1 mph - N/A   Overcast
1:16 AM 37.9 °F 32.1 °F 32.5 °F 81% 30.23 in 10.0 mi WNW 8.1 mph - N/A   Overcast
1:35 AM 37.6 °F 33.1 °F 32.4 °F 81% 30.23 in 7.0 mi WNW 5.8 mph - N/A   Overcast
1:36 AM 37.4 °F 32.8 °F 32.4 °F 82% 30.23 in 10.0 mi WNW 5.8 mph - N/A   Overcast
1:55 AM 36.3 °F 31.6 °F 32.0 °F 84% 30.24 in 7.0 mi WNW 5.8 mph - N/A   Mostly Cloudy
1:56 AM 36.1 °F 31.4 °F 31.8 °F 84% 30.24 in 5.0 mi WNW 5.8 mph - N/A   Mostly Cloudy
2:18 AM 33.6 °F 28.4 °F 30.7 °F 89% 30.26 in 10.0 mi West 5.8 mph - N/A   Scattered Clouds
2:36 AM 32.0 °F 25.6 °F 29.7 °F 91% 30.26 in 7.0 mi West 6.9 mph - N/A   Clear
2:55 AM 31.3 °F 27.9 °F 29.3 °F 92% 30.28 in 10.0 mi WSW 3.5 mph - N/A   Clear
2:56 AM 31.3 °F 25.6 °F 29.3 °F 92% 30.28 in 10.0 mi WSW 5.8 mph - N/A   Clear
3:15 AM 30.9 °F 25.2 °F 28.8 °F 92% 30.28 in 10.0 mi WSW 5.8 mph - N/A   Clear
3:16 AM 30.9 °F 25.2 °F 28.8 °F 92% 30.28 in 10.0 mi WSW 5.8 mph - N/A   Clear
3:35 AM 30.6 °F 23.8 °F 28.4 °F 92% 30.28 in 7.0 mi West 6.9 mph - N/A   Clear
3:39 AM 30.6 °F 23.8 °F 28.2 °F 91% 30.28 in 7.0 mi West 6.9 mph - N/A   Clear
3:58 AM 29.8 °F 23.9 °F 27.5 °F 91% 30.28 in 10.0 mi West 5.8 mph - N/A   Clear
4:15 AM 28.9 °F 21.9 °F 27.0 °F 92% 30.29 in 5.0 mi WSW 6.9 mph - N/A   Clear
4:35 AM 28.4 °F 23.3 °F 26.4 °F 92% 30.29 in 10.0 mi WSW 4.6 mph - N/A   Clear
4:36 AM 28.4 °F 22.2 °F 26.4 °F 92% 30.29 in 10.0 mi WSW 5.8 mph - N/A   Clear
4:55 AM 29.7 °F 22.8 °F 28.0 °F 94% 30.30 in 7.0 mi WSW 6.9 mph - N/A   Mostly Cloudy
5:18 AM 30.2 °F 23.4 °F 27.5 °F 90% 30.31 in 10.0 mi WSW 6.9 mph - N/A   Mostly Cloudy
5:36 AM 29.3 °F 21.5 °F 26.6 °F 90% 30.31 in 7.0 mi WSW 8.1 mph - N/A   Scattered Clouds
5:55 AM 30.7 °F 24.1 °F 27.5 °F 88% 30.32 in 10.0 mi WSW 6.9 mph - N/A   Mostly Cloudy
6:15 AM 29.8 °F 24.9 °F 27.0 °F 89% 30.32 in 10.0 mi SW 4.6 mph - N/A   Mostly Cloudy
6:16 AM 29.8 °F 24.9 °F 27.0 °F 89% 30.32 in 10.0 mi WSW 4.6 mph - N/A   Mostly Cloudy
6:35 AM 30.0 °F 25.2 °F 27.5 °F 90% 30.32 in 10.0 mi SW 4.6 mph - N/A   Mostly Cloudy
6:40 AM 30.0 °F 24.1 °F 27.5 °F 90% 30.32 in 10.0 mi SW 5.8 mph - N/A   Mostly Cloudy
6:57 AM 30.6 °F 27.1 °F 28.0 °F 90% 30.31 in 10.0 mi SW 3.5 mph - N/A   Overcast
7:15 AM 31.3 °F 27.9 °F 28.4 °F 89% 30.31 in 10.0 mi SSW 3.5 mph - N/A   Overcast
7:35 AM 31.1 °F 26.4 °F 28.4 °F 90% 30.32 in 10.0 mi SW 4.6 mph - N/A   Overcast
7:55 AM 30.9 °F 25.2 °F 27.9 °F 88% 30.33 in 7.0 mi SW 5.8 mph - N/A   Scattered Clouds
7:56 AM 30.9 °F 25.2 °F 27.9 °F 88% 30.33 in 7.0 mi SW 5.8 mph - N/A   Scattered Clouds
8:18 AM 30.0 °F 24.1 °F 27.5 °F 90% 30.34 in 7.0 mi WSW 5.8 mph - N/A   Clear
8:37 AM 30.9 °F 26.2 °F 28.2 °F 90% 30.34 in 7.0 mi West 4.6 mph - N/A   Clear
8:56 AM 31.8 °F 27.3 °F 28.9 °F 89% 30.35 in 10.0 mi West 4.6 mph - N/A   Clear
9:15 AM 32.9 °F 25.9 °F 29.8 °F 88% 30.35 in 5.0 mi WNW 8.1 mph - N/A   Clear
9:16 AM 33.1 °F 25.5 °F 29.8 °F 88% 30.35 in 5.0 mi WNW 9.2 mph - N/A   Clear
9:35 AM 34.2 °F 26.8 °F 30.2 °F 85% 30.35 in 5.0 mi WNW 9.2 mph - N/A   Clear
9:39 AM 34.7 °F 28.8 °F 30.6 °F 85% 30.35 in 7.0 mi WNW 6.9 mph - N/A   Clear
9:57 AM 35.6 °F 28.6 °F 31.1 °F 84% 30.37 in 7.0 mi NW 9.2 mph - N/A   Clear
10:16 AM 36.9 °F 33.1 °F 31.8 °F 82% 30.38 in 5.0 mi NW 4.6 mph - N/A   Haze
10:35 AM 38.3 °F 32.5 °F 31.3 °F 76% 30.38 in 5.0 mi North 8.1 mph - N/A   Haze
10:36 AM 38.3 °F 32.5 °F 31.5 °F 76% 30.38 in 5.0 mi North 8.1 mph - N/A   Haze
10:55 AM 39.2 °F 33.0 °F 30.6 °F 71% 30.38 in 7.0 mi North 9.2 mph - N/A   Clear
11:17 AM 40.1 °F 35.3 °F 28.8 °F 64% 30.38 in 7.0 mi North 6.9 mph - N/A   Clear
11:35 AM 40.8 °F 35.0 °F 29.3 °F 64% 30.38 in 7.0 mi NNW 9.2 mph - N/A   Clear
12:15 PM 42.4 °F 38.8 °F 28.8 °F 58% 30.38 in 10.0 mi NNW 5.8 mph - N/A   Clear
12:16 PM 42.4 °F 39.6 °F 28.6 °F 58% 30.38 in 10.0 mi NNW 4.6 mph - N/A   Clear
1:16 PM 44.6 °F 42.2 °F 28.4 °F 53% 30.37 in 7.0 mi WNW 4.6 mph - N/A   Clear
1:35 PM 44.6 °F 42.2 °F 28.0 °F 52% 30.37 in 7.0 mi WSW 4.6 mph - N/A   Clear
1:36 PM 44.6 °F 40.7 °F 27.7 °F 52% 30.37 in 7.0 mi WSW 6.9 mph - N/A   Clear
1:55 PM 45.1 °F 40.8 °F 27.7 °F 50% 30.37 in 7.0 mi West 8.1 mph - N/A   Clear
1:59 PM 45.1 °F 40.8 °F 27.0 °F 49% 30.37 in 7.0 mi WNW 8.1 mph - N/A   Clear
2:17 PM 45.5 °F 41.3 °F 27.5 °F 49% 30.36 in 7.0 mi WSW 8.1 mph - N/A   Clear
2:36 PM 45.7 °F 40.6 °F 27.9 °F 50% 30.35 in 7.0 mi WSW 10.4 mph - N/A   Clear
2:55 PM 46.0 °F 42.5 °F 27.7 °F 49% 30.35 in 10.0 mi West 6.9 mph - N/A   Clear
2:56 PM 46.0 °F 41.4 °F 27.7 °F 49% 30.35 in 10.0 mi WNW 9.2 mph - N/A   Clear
3:18 PM 46.2 °F 43.3 °F 27.3 °F 48% 30.34 in 10.0 mi West 5.8 mph - N/A   Clear
3:36 PM 46.0 °F 41.4 °F 28.0 °F 50% 30.34 in 5.0 mi West 9.2 mph - N/A   Haze
3:55 PM 46.2 °F 44.1 °F 25.5 °F 44% 30.33 in 10.0 mi West 4.6 mph - N/A   Clear
3:56 PM 46.2 °F 44.1 °F 25.5 °F 44% 30.33 in 10.0 mi West 4.6 mph - N/A   Clear
4:15 PM 46.2 °F 43.3 °F 26.8 °F 47% 30.34 in 10.0 mi West 5.8 mph - N/A   Clear
4:16 PM 46.4 °F 42.9 °F 27.1 °F 47% 30.34 in 10.0 mi WNW 6.9 mph - N/A   Clear
4:35 PM 46.0 °F 43.9 °F 27.1 °F 48% 30.34 in 7.0 mi SW 4.6 mph - N/A   Clear
4:39 PM 45.9 °F 44.6 °F 27.7 °F 49% 30.34 in 7.0 mi WSW 3.5 mph - N/A   Clear
4:58 PM 45.5 °F 43.2 °F 28.0 °F 51% 30.34 in 10.0 mi West 4.6 mph - N/A   Clear
5:15 PM 44.6 °F 41.4 °F 27.3 °F 51% 30.34 in 10.0 mi WSW 5.8 mph - N/A   Clear
5:35 PM 43.7 °F 41.1 °F 28.2 °F 54% 30.34 in 7.0 mi West 4.6 mph - N/A   Clear
5:36 PM 43.7 °F 41.1 °F 28.0 °F 54% 30.34 in 7.0 mi West 4.6 mph - N/A   Clear
5:55 PM 42.6 °F - 27.0 °F 54% 30.33 in 10.0 mi Calm Calm - N/A   Clear
5:56 PM 42.6 °F - 26.8 °F 54% 30.33 in 10.0 mi Calm Calm - N/A   Clear
6:18 PM 42.1 °F - 26.4 °F 54% 30.32 in 7.0 mi Calm Calm - N/A   Clear
6:36 PM 39.4 °F - 27.7 °F 63% 30.32 in 7.0 mi Calm Calm - N/A   Clear
6:55 PM 37.8 °F - 28.0 °F 68% 30.33 in 7.0 mi Calm Calm - N/A   Clear
7:15 PM 35.1 °F - 27.3 °F 73% 30.33 in 10.0 mi Calm Calm - N/A   Clear
7:16 PM 35.1 °F - 27.1 °F 73% 30.33 in 10.0 mi Calm Calm - N/A   Clear
7:35 PM 34.3 °F - 26.6 °F 73% 30.33 in 10.0 mi Calm Calm - N/A   Clear
7:40 PM 33.4 °F 30.4 °F 27.0 °F 77% 30.33 in 10.0 mi SE 3.5 mph - N/A   Clear
7:57 PM 32.4 °F 26.9 °F 25.9 °F 77% 30.34 in 10.0 mi SE 5.8 mph - N/A   Clear
8:15 PM 32.4 °F 26.9 °F 26.6 °F 79% 30.33 in 10.0 mi SSE 5.8 mph - N/A   Clear
8:35 PM 31.8 °F 25.4 °F 27.1 °F 83% 30.34 in 10.0 mi SSE 6.9 mph - N/A   Clear
8:36 PM 31.8 °F 25.4 °F 27.1 °F 83% 30.34 in 10.0 mi SSE 6.9 mph - N/A   Clear
8:55 PM 33.1 °F 26.9 °F 27.3 °F 79% 30.34 in 10.0 mi SSE 6.9 mph - N/A   Clear
8:56 PM 32.9 °F 26.7 °F 27.3 °F 80% 30.34 in 10.0 mi SSE 6.9 mph - N/A   Clear
9:18 PM 31.8 °F 24.6 °F 26.6 °F 81% 30.35 in 10.0 mi South 8.1 mph - N/A   Clear
9:37 PM 32.0 °F 24.8 °F 26.4 °F 80% 30.35 in 10.0 mi South 8.1 mph - N/A   Clear
9:56 PM 31.5 °F 24.2 °F 26.2 °F 81% 30.35 in 7.0 mi South 8.1 mph - N/A   Clear
10:15 PM 30.9 °F 24.3 °F 26.2 °F 83% 30.35 in 7.0 mi SSE 6.9 mph - N/A   Clear
10:16 PM 30.9 °F 24.3 °F 26.2 °F 83% 30.35 in 7.0 mi South 6.9 mph - N/A   Clear
10:35 PM 30.2 °F 22.6 °F 26.1 °F 85% 30.35 in 10.0 mi South 8.1 mph - N/A   Clear
10:57 PM 30.9 °F 22.8 °F 26.4 °F 83% 30.34 in 7.0 mi South 9.2 mph - N/A   Clear
11:15 PM 31.1 °F 23.7 °F 26.6 °F 83% 30.33 in 7.0 mi SSE 8.1 mph - N/A   Clear
11:35 PM 29.8 °F 21.5 °F 26.2 °F 86% 30.33 in 7.0 mi South 9.2 mph - N/A   Clear
11:55 PM 30.6 °F 23.1 °F 26.6 °F 85% 30.32 in 10.0 mi South 8.1 mph - N/A   Clear
11:56 PM 30.6 °F 23.1 °F 26.6 °F 85% 30.32 in 10.0 mi South 8.1 mph - N/A   Clear